Terminal Aerodrome Forecast
Issued by NWS Jackson, MS

Home | Current Version | Previous Version | Text Only | Print | Product List | Glossary On
Versions: 1 2 3 4 5 6 7 8 9 10 11 12 13 14 15 16 17 18
000
FTUS44 KJAN 241526 AAA
TAFMEI
TAF AMD
KMEI 241526Z 2415/2512 20010KT P6SM OVC007
     FM241600 20011G20KT P6SM SCT025
     FM250000 20008KT P6SM OVC020
     FM250600 32008KT P6SM SCT020=

USA.gov is the U.S. government's official web portal to all federal, state and local government web resources and services.